Wind_Speed
28 33 36 33 33 34 36 39 41 42 43 43 45 47 46 45 45 45 46 47 47 47 46 44 43 43 43 42 41 40 38 36 35 35 34 33 33 32 31 30 29 28 28 28 27 27 26 24 22 22 22 21 20 20 19 19 17 16 15 16 16 16 15
30 32 40 40 37 35 34 37 39 39 39 41 44 46 46 46 48 48 48 48 48 47 46 45 44 43 43 42 41 41 40 38 37 36 35 34 34 34 33 32 31 30 28 27 26 26 25 25 23 22 22 22 21 20 20 20 19 18 18 17 17 18 17
33 31 38 42 39 36 34 35 38 39 40 40 42 46 48 48 50 50 49 49 49 48 46 45 44 43 43 42 42 41 41 40 39 38 37 36 36 35 34 34 33 31 29 28 27 25 24 25 25 24 24 23 22 21 20 20 21 20 20 19 18 19 19
37 31 34 42 41 37 36 38 41 43 43 43 44 47 49 49 49 49 48 49 49 49 48 46 45 45 44 43 43 42 42 41 40 40 39 38 37 36 36 36 35 33 31 30 29 26 25 24 25 26 25 26 25 24 22 21 21 21 21 21 20 20 20
38 31 32 43 45 41 40 41 41 44 46 46 46 46 46 45 46 46 47 48 48 47 47 46 46 46 45 45 45 44 43 42 41 41 40 40 39 38 38 37 36 35 33 31 30 29 27 26 25 25 26 27 27 26 24 23 22 22 21 22 22 22 21
35 30 30 40 44 42 42 39 39 42 45 46 45 44 43 42 42 43 44 47 48 47 46 47 47 47 47 46 46 45 44 44 43 43 42 41 40 40 39 39 38 37 35 33 31 30 29 28 27 26 27 27 28 27 26 25 24 23 23 23 23 23 23
33 31 32 36 38 37 38 38 39 42 42 40 39 39 40 40 41 41 41 43 46 47 47 48 48 48 48 47 46 46 45 45 44 44 43 43 42 42 41 40 39 37 36 35 34 32 31 31 30 29 28 28 28 28 28 27 26 26 26 25 25 24 24
36 36 36 35 33 33 34 35 37 37 37 36 35 37 39 40 40 41 41 42 45 47 47 48 49 49 48 47 47 47 46 46 45 45 44 44 43 43 42 40 39 38 37 35 35 34 33 32 32 31 30 29 29 29 29 28 28 28 28 28 27 26 26
40 40 37 34 33 31 31 33 33 32 33 35 36 37 39 40 40 42 42 40 42 45 47 47 48 48 48 47 47 47 47 46 46 46 45 45 45 45 44 42 41 39 38 37 35 35 35 34 33 33 32 31 31 30 30 30 30 30 30 31 30 29 28
40 41 37 33 31 30 31 33 33 33 33 34 36 38 39 40 40 41 42 41 41 43 45 45 46 46 47 48 48 47 47 47 47 47 46 47 47 46 45 45 44 42 40 39 37 36 35 35 34 33 34 33 33 33 32 32 32 32 32 32 32 31 30
39 43 38 31 28 29 31 32 32 34 33 33 36 38 38 39 39 39 41 42 41 41 42 43 44 44 46 47 48 48 48 48 48 48 47 47 47 47 46 46 45 44 42 41 39 37 36 36 36 35 35 35 35 35 34 34 33 33 33 34 34 33 33
38 43 40 33 29 29 30 31 32 33 32 33 36 37 37 38 38 37 38 40 39 38 39 41 42 43 44 45 47 48 49 49 49 49 48 47 47 47 46 46 45 44 43 42 41 39 37 37 37 37 37 37 37 36 36 35 35 35 35 35 35 35 34
28 34 36 33 29 29 29 30 31 31 32 34 37 37 37 37 37 37 37 39 38 36 37 40 41 41 42 43 45 47 48 50 49 48 48 48 47 46 45 45 44 43 42 41 40 40 38 38 39 39 39 39 38 38 38 37 36 36 37 36 36 36 36
24 23 26 25 22 22 25 28 28 29 31 34 38 38 35 35 36 37 37 37 36 35 36 38 40 41 42 41 42 44 47 48 48 48 48 47 47 46 45 44 43 41 40 39 39 39 38 39 39 40 40 40 40 39 39 38 38 38 38 38 38 37 37
23 20 17 18 19 18 20 25 27 28 31 34 36 36 34 32 34 36 36 35 35 36 35 36 39 41 42 43 43 43 44 45 46 46 47 47 47 46 45 44 43 42 40 40 39 39 38 37 38 38 40 40 41 40 40 40 41 40 40 40 40 39 39
18 20 18 17 19 20 19 18 19 22 28 31 32 32 31 31 32 34 34 33 34 36 35 35 39 41 42 44 45 44 42 43 44 44 45 46 46 46 46 45 44 43 42 42 41 40 39 37 36 37 39 40 41 41 42 42 42 42 42 42 41 41 40
9 20 25 23 21 20 18 17 16 19 23 26 28 29 29 30 31 31 32 32 33 35 35 35 37 41 43 43 43 43 42 42 43 43 44 45 46 46 46 45 45 44 44 44 43 42 40 39 38 37 38 39 41 42 43 43 44 44 43 43 42 41 41
9 11 20 23 21 17 16 19 19 19 22 24 26 28 28 29 30 29 30 31 31 32 33 34 36 40 43 43 41 42 44 44 44 44 43 44 44 45 45 45 45 45 45 45 44 43 42 41 41 40 38 38 40 41 43 43 44 44 44 44 43 42 41
4 3 9 17 19 14 15 21 19 17 19 20 21 24 24 25 27 29 29 29 30 30 32 34 35 36 40 43 43 43 44 44 44 44 44 44 44 44 45 45 46 46 46 46 45 44 44 44 44 43 42 41 41 41 42 42 43 43 44 44 43 43 42
2 1 1 5 9 9 10 15 16 11 10 12 14 17 20 22 24 27 28 27 28 31 32 34 35 34 37 41 44 44 43 44 45 45 45 44 44 44 45 46 46 46 46 46 45 45 46 46 46 45 45 44 44 44 43 43 42 43 43 43 43 42 42
2 3 3 1 6 11 11 10 9 5 3 6 9 11 14 18 20 22 24 26 28 31 32 34 36 36 35 38 42 44 43 43 44 44 44 44 44 44 45 46 47 46 46 45 45 46 47 47 47 47 47 46 46 46 46 45 44 44 44 44 42 42 41
3 1 5 10 11 9 5 3 2 1 3 6 9 8 8 12 16 18 22 24 26 30 32 33 35 37 37 37 40 43 43 42 42 43 44 44 44 45 46 46 46 46 45 45 45 45 46 47 47 47 47 47 46 47 48 48 47 46 46 45 43 42 41
14 13 15 14 11 7 3 1 1 4 6 6 7 7 7 9 11 15 19 23 24 27 31 33 35 38 39 37 37 40 42 42 42 42 43 43 44 46 46 46 45 44 44 44 44 44 45 47 47 47 48 48 48 49 50 50 49 48 47 46 44 43 42
16 14 13 12 11 8 1 3 3 4 4 3 4 6 8 11 13 13 16 21 24 26 28 33 36 37 38 37 36 37 41 41 41 41 42 43 44 45 45 44 43 43 43 43 43 44 44 44 45 46 47 48 49 50 51 50 49 48 47 46 44 44 44
13 12 11 11 8 3 4 6 6 5 4 3 3 4 4 9 14 15 15 17 22 25 28 32 34 35 37 37 35 34 38 40 40 41 42 43 43 43 42 42 42 41 42 42 43 43 41 39 39 41 43 45 46 47 48 48 48 48 47 46 45 44 44
12 11 10 10 8 7 8 9 7 5 4 4 7 7 4 6 11 16 17 16 19 24 26 29 31 32 33 35 34 33 35 37 39 40 40 40 41 41 40 39 40 40 40 40 41 42 40 38 37 37 38 39 40 42 44 45 44 45 46 46 45 45 45
12 10 9 10 11 10 9 8 6 5 5 7 7 5 5 6 7 12 17 17 17 21 22 23 26 28 30 32 33 32 33 35 37 38 38 37 36 37 38 37 37 37 37 37 38 38 38 38 36 35 35 35 36 37 39 40 40 41 42 43 43 43 43
12 12 11 11 11 9 8 7 7 6 7 7 6 4 4 5 6 9 14 15 15 17 17 17 19 24 28 29 30 31 30 32 35 35 35 34 33 34 34 34 33 33 33 33 33 33 34 35 35 34 34 33 33 33 34 34 35 36 38 40 40 40 41
13 13 12 11 10 9 9 8 8 8 7 8 8 7 5 3 3 6 8 10 10 11 14 14 14 19 24 26 27 29 28 28 31 33 32 32 32 31 31 31 30 30 30 31 30 29 30 31 32 33 33 32 32 31 31 31 32 33 35 36 37 37 38
14 13 11 10 10 10 9 8 9 9 6 8 11 9 4 1 1 2 4 7 9 10 13 15 12 13 20 24 25 27 27 25 25 28 29 29 29 29 29 29 29 29 28 29 29 29 29 29 29 30 31 31 31 30 29 29 29 30 32 33 34 33 34
13 12 10 9 10 10 8 6 7 7 5 7 11 7 2 6 5 5 6 8 11 12 14 16 14 10 14 20 21 23 25 23 22 23 25 25 25 27 27 27 27 28 28 28 28 28 29 28 27 28 29 29 28 27 26 26 26 27 28 30 30 31 32
12 11 10 10 10 9 7 6 5 4 4 6 9 6 2 6 6 6 7 6 9 11 13 14 13 11 12 15 17 18 21 21 21 21 21 22 22 23 24 24 24 25 26 26 27 27 27 27 26 26 27 27 26 25 24 24 24 24 25 26 28 29 31
10 10 9 9 9 8 6 6 5 4 4 4 6 7 2 2 2 3 5 5 3 5 10 13 11 9 11 13 13 15 18 19 19 19 20 20 20 20 21 21 21 22 24 25 24 24 24 24 24 25 25 25 25 24 23 23 21 21 22 24 26 28 28
9 9 9 9 8 7 5 4 3 3 3 3 4 7 5 2 2 2 4 5 5 3 7 11 10 8 10 11 11 12 15 17 18 19 19 19 19 19 19 19 18 20 22 22 21 22 23 23 23 23 22 21 21 22 22 21 20 21 24 26 27 27 27
7 7 7 7 7 5 3 3 3 3 3 3 4 4 4 4 3 4 3 3 8 7 4 7 9 8 8 10 11 11 13 15 17 17 17 18 17 17 17 18 17 17 19 20 20 20 21 21 21 21 20 19 20 20 20 18 19 22 24 25 24 23 23
6 5 5 5 6 5 3 2 3 3 2 3 4 4 3 4 4 5 5 4 8 8 6 7 9 8 9 9 9 11 13 13 14 16 16 15 15 16 17 16 16 16 18 21 21 21 22 21 20 19 18 18 18 19 19 19 20 21 21 21 21 21 20
4 4 4 3 3 5 5 4 3 3 3 3 4 4 5 6 6 5 4 6 7 8 9 9 8 9 12 12 10 12 15 13 12 16 17 14 13 16 18 17 17 16 16 17 17 19 21 22 22 21 20 18 18 19 20 21 23 24 24 25 25 26 25
2 2 2 2 2 1 2 3 3 5 6 6 6 6 6 6 7 7 6 6 7 8 9 8 7 9 12 13 12 13 15 14 14 18 19 15 13 15 15 13 12 13 13 14 14 15 17 19 21 23 24 24 23 23 24 25 26 27 29 30 31 31 32
Wind_Direction
179 173 178 184 183 187 193 196 199 200 198 198 199 200 200 198 197 197 199 201 202 202 202 203 204 207 209 211 214 216 217 218 218 219 219 219 220 220 221 224 227 223 220 223 226 227 229 231 229 228 231 233 227 224 226 226 224 223 222 219 216 218 223
187 179 178 183 186 189 193 195 198 200 200 200 200 200 200 198 198 199 200 201 203 204 204 205 206 208 211 213 215 217 219 220 220 221 221 222 223 224 224 225 228 228 225 224 228 232 232 230 230 229 230 235 235 227 226 228 228 226 224 221 218 219 223
186 185 178 180 188 194 194 194 197 201 203 203 200 200 202 200 199 200 201 202 203 204 205 207 209 210 213 215 216 218 220 220 221 222 222 223 224 225 226 227 227 228 228 225 224 229 232 231 228 227 227 232 237 235 230 229 230 229 227 224 222 222 226
182 191 179 176 185 194 196 197 199 200 204 206 204 203 202 201 201 200 202 204 206 206 207 209 210 212 214 216 217 218 219 220 220 222 222 223 224 225 226 227 226 226 227 227 224 222 227 231 229 227 225 228 234 238 237 233 231 231 230 228 227 226 228
178 189 179 172 178 187 192 196 200 200 202 206 206 204 203 201 200 201 203 206 210 211 212 211 211 212 214 216 218 218 219 220 219 220 221 222 224 225 226 228 227 225 226 228 228 223 222 227 231 230 226 226 230 235 239 237 234 234 233 232 231 229 230
177 188 181 171 174 182 185 189 195 198 200 203 203 201 201 200 199 199 202 205 210 213 213 213 212 212 214 215 218 219 219 220 219 220 221 221 223 225 226 227 226 226 226 227 230 229 225 224 228 231 229 227 228 230 234 238 236 236 236 234 234 233 233
178 184 183 173 174 180 182 187 192 196 199 201 201 199 198 199 199 198 200 203 209 212 212 214 213 213 215 216 218 220 220 220 220 220 221 222 223 225 226 227 226 227 228 228 230 232 230 228 227 228 230 230 229 228 232 237 238 238 237 235 235 234 234
179 183 188 182 180 181 182 187 189 190 193 195 200 202 198 199 199 198 199 202 207 211 213 214 214 215 217 218 220 220 221 222 222 221 222 222 223 224 225 226 226 227 227 228 230 231 231 232 230 227 228 229 231 230 231 235 237 237 238 237 236 235 233
179 182 187 185 185 185 181 184 185 185 189 193 199 203 200 199 200 199 200 200 203 208 212 215 216 217 218 218 220 220 220 222 223 223 223 223 224 225 225 227 227 228 227 226 228 229 230 233 232 231 230 229 231 232 231 233 235 236 238 239 239 238 236
177 176 181 183 183 179 174 178 183 187 192 195 200 203 202 201 201 200 200 200 201 204 210 214 216 218 219 218 219 220 220 221 223 224 224 224 225 226 227 229 230 230 229 227 227 228 231 233 233 234 235 233 231 232 232 232 233 234 235 238 240 241 239
166 166 174 180 176 168 168 176 184 190 193 196 200 203 203 203 203 202 201 202 202 202 205 208 211 216 220 220 220 221 221 221 223 225 226 226 226 228 228 230 231 231 231 230 228 229 231 233 233 234 236 236 233 233 234 233 233 233 234 236 239 241 242
158 162 167 175 174 169 174 181 186 190 193 196 200 203 204 205 205 205 205 204 204 202 201 203 206 211 217 220 221 221 222 223 223 225 227 227 227 228 229 230 230 232 233 233 231 230 229 231 234 234 235 238 237 235 235 235 233 234 235 236 237 239 242
141 161 164 170 177 182 187 188 187 188 191 196 200 201 204 206 205 206 208 206 205 204 202 203 205 207 211 217 220 219 220 223 223 223 225 228 228 227 227 228 228 229 231 234 233 230 228 229 233 236 237 239 240 238 237 237 235 235 236 236 236 237 239
117 145 156 157 163 177 192 196 194 192 193 197 201 201 202 206 206 207 209 207 205 205 205 204 206 207 208 212 217 217 218 221 223 223 223 226 228 226 225 224 224 224 226 229 231 229 228 228 231 236 238 238 240 240 239 238 237 236 236 237 236 235 237
122 129 140 142 149 169 193 198 195 195 197 198 199 199 202 205 207 208 208 208 206 206 207 206 206 208 209 211 215 217 217 218 221 223 224 224 226 226 225 223 223 222 222 224 227 229 229 228 228 232 236 237 239 241 240 239 239 238 237 237 236 234 234
143 142 139 137 153 177 196 196 190 191 195 195 195 198 203 206 208 209 208 207 207 207 208 208 208 209 209 212 216 216 216 217 219 222 223 223 225 227 226 224 223 222 221 221 225 229 231 229 226 228 233 235 237 239 240 239 240 241 241 240 240 238 235
134 142 142 138 145 161 174 182 187 194 198 198 199 201 205 208 209 209 208 208 208 208 207 209 211 211 211 213 215 215 216 218 219 221 222 222 224 226 226 224 223 223 223 222 223 226 230 231 227 226 230 234 236 238 240 240 241 243 245 245 244 242 239
50 113 137 141 143 144 157 172 182 195 203 206 206 206 208 210 209 208 208 208 208 207 207 209 212 214 213 213 214 215 216 218 219 220 222 223 223 224 225 225 223 223 223 223 223 223 226 230 230 228 227 231 235 238 240 243 245 246 247 247 247 245 243
51 111 133 143 151 156 173 178 172 180 195 201 204 206 208 209 209 209 210 209 208 207 207 209 212 215 215 213 214 216 216 216 218 220 222 224 224 224 224 224 224 223 223 224 224 223 224 228 231 231 229 229 232 236 239 243 246 248 249 248 248 247 245
130 171 78 147 148 126 139 158 154 157 179 191 200 204 205 207 210 212 211 209 210 210 209 210 210 213 217 215 214 216 216 215 217 219 221 223 224 223 223 224 225 225 224 224 223 223 225 227 229 231 232 230 231 234 238 240 243 247 249 249 249 248 246
250 245 261 178 112 92 91 115 129 128 149 184 202 205 202 204 206 209 211 211 211 211 211 212 211 212 217 218 214 214 215 215 215 218 220 222 223 223 224 225 226 226 224 223 223 224 226 227 228 230 232 232 232 233 237 240 242 244 247 249 248 248 246
357 31 84 86 99 104 83 65 101 241 247 217 213 209 204 207 205 205 209 211 212 213 213 214 214 213 216 219 216 213 214 215 215 216 219 221 222 223 224 225 226 226 225 223 223 225 226 227 229 230 232 233 233 234 237 240 241 243 245 247 247 246 246
45 53 62 69 80 83 57 355 234 254 262 248 226 218 216 215 211 210 211 210 212 215 214 215 217 215 215 219 218 214 214 216 215 216 218 220 222 224 225 225 225 225 225 223 223 225 227 228 230 232 233 234 235 236 238 240 240 242 244 245 245 245 245
47 47 47 54 69 78 94 257 283 297 301 300 262 244 231 218 211 211 214 213 213 215 215 217 219 217 216 218 220 217 215 216 217 218 219 221 224 226 226 226 227 227 226 226 226 227 229 231 232 233 235 236 237 238 240 241 241 242 243 243 243 244 244
38 39 37 44 56 46 329 341 358 3 10 347 264 241 236 225 217 212 210 212 215 216 217 219 220 220 218 218 220 220 218 217 218 220 221 223 225 227 229 229 230 230 229 229 230 230 230 231 233 234 235 237 238 240 242 243 243 243 244 243 243 243 244
24 25 25 23 14 355 357 13 19 16 6 306 257 236 239 242 227 218 213 209 213 217 221 222 222 221 221 219 220 221 219 218 219 221 222 223 225 228 230 231 231 231 232 232 232 232 231 230 232 234 235 236 237 240 243 244 244 244 245 245 244 243 244
16 15 11 4 4 4 9 19 19 10 354 324 305 300 294 280 254 230 218 212 213 216 221 226 225 223 221 219 219 221 221 219 219 221 223 224 225 228 230 231 231 231 231 231 232 232 232 230 230 232 234 236 238 241 243 245 246 247 248 248 247 246 246
9 10 7 5 9 10 11 12 6 0 357 345 337 338 324 312 290 250 225 216 218 217 218 225 229 225 222 219 217 218 220 220 219 221 223 224 225 227 228 229 230 229 229 229 229 231 232 231 230 230 232 236 239 242 244 246 247 249 251 252 251 250 249
4 3 3 5 5 1 2 5 359 358 360 347 325 299 276 284 297 265 233 219 221 217 212 218 228 227 220 217 216 216 218 221 220 220 222 224 224 226 227 227 228 226 226 226 226 228 230 231 231 230 232 235 238 241 245 247 249 251 254 256 256 254 253
359 357 356 357 355 351 355 359 356 358 3 355 345 328 285 157 62 241 209 205 207 202 201 205 214 225 220 215 215 214 215 219 221 220 222 222 223 225 226 226 226 224 224 224 224 225 228 230 231 232 233 236 239 242 245 247 251 254 256 259 259 259 258
354 353 352 351 348 346 351 354 348 355 11 12 7 5 126 124 118 168 187 197 198 191 193 197 199 211 215 211 212 213 212 216 220 220 220 219 221 223 223 223 224 223 222 223 223 224 226 228 231 233 235 238 240 242 244 246 250 254 258 262 263 264 265
349 349 346 348 345 341 350 355 346 355 12 12 16 20 137 147 144 170 186 200 203 195 191 190 192 202 204 200 204 209 208 211 216 218 217 217 219 221 222 221 221 220 221 222 223 225 227 228 229 233 236 239 241 242 245 247 248 252 259 264 265 266 268
348 351 347 346 346 343 348 348 347 12 18 6 20 23 13 198 208 220 205 195 203 206 196 183 175 188 194 189 195 205 206 207 210 213 215 215 215 217 219 219 217 217 219 220 221 224 226 226 227 230 233 238 242 245 248 250 250 253 259 261 261 262 264
341 345 343 345 345 343 353 356 354 18 15 1 23 28 19 2 337 302 236 191 153 155 199 192 172 171 187 188 193 204 207 205 206 208 211 210 210 212 216 216 212 213 218 221 219 221 224 226 228 231 232 236 241 245 249 251 249 248 250 252 256 259 263
339 338 343 355 357 350 352 18 30 38 29 20 38 43 29 27 48 42 23 169 157 140 159 186 177 174 184 187 193 203 206 202 200 203 207 209 208 206 210 215 214 212 217 220 219 219 224 226 227 229 230 233 237 240 241 239 238 239 241 244 250 257 264
345 346 347 1 18 29 51 60 35 35 39 42 55 70 57 39 43 51 55 101 143 139 132 155 171 174 175 178 187 193 194 198 201 200 200 206 206 199 201 210 210 206 211 217 217 219 224 225 225 223 221 222 226 230 231 232 235 240 244 247 250 253 260
347 1 5 359 16 45 65 76 72 67 69 71 69 70 71 63 54 53 74 108 132 146 154 162 168 166 165 168 170 170 177 187 188 182 186 194 189 183 191 203 203 198 205 212 214 218 223 227 232 237 238 239 239 238 239 241 245 249 252 255 257 259 261
354 356 12 19 14 31 63 73 87 94 93 97 94 80 75 77 70 63 69 90 114 135 153 168 176 167 164 167 165 161 169 169 153 154 172 186 177 164 170 183 190 194 205 213 217 222 224 227 233 239 244 250 253 253 255 256 258 260 261 263 265 267 270
Height
1429 1432 1436 1441 1445 1449 1453 1455 1460 1464 1467 1469 1471 1476 1481 1483 1484 1484 1484 1485 1487 1490 1493 1496 1499 1502 1505 1509 1512 1515 1518 1521 1523 1526 1528 1531 1533 1535 1537 1538 1540 1542 1544 1545 1547 1548 1550 1552 1554 1555 1556 1558 1560 1562 1563 1565 1566 1567 1568 1570 1571 1571 1572
1425 1429 1432 1436 1440 1444 1449 1452 1457 1462 1465 1467 1470 1475 1478 1479 1480 1479 1479 1480 1482 1485 1488 1492 1495 1498 1501 1505 1508 1511 1514 1517 1520 1523 1525 1527 1530 1532 1534 1536 1537 1539 1541 1543 1545 1547 1549 1550 1552 1553 1554 1556 1558 1560 1561 1563 1564 1565 1566 1568 1569 1570 1570
1420 1424 1426 1431 1434 1439 1444 1448 1451 1455 1460 1464 1468 1471 1473 1474 1474 1474 1475 1477 1479 1482 1484 1487 1491 1494 1497 1501 1504 1508 1511 1514 1516 1519 1521 1524 1526 1529 1531 1533 1535 1537 1539 1541 1543 1545 1546 1548 1550 1551 1553 1554 1555 1557 1559 1560 1562 1563 1565 1566 1567 1568 1569
1414 1417 1421 1425 1429 1435 1439 1442 1445 1448 1455 1461 1465 1467 1468 1470 1472 1473 1473 1474 1475 1478 1480 1483 1486 1489 1493 1496 1500 1503 1506 1509 1512 1515 1517 1520 1523 1525 1528 1530 1532 1534 1536 1538 1540 1542 1544 1545 1547 1549 1551 1552 1553 1555 1557 1558 1560 1561 1563 1564 1565 1566 1567
1409 1413 1417 1420 1424 1430 1434 1438 1443 1446 1451 1457 1462 1465 1467 1470 1472 1473 1473 1472 1473 1474 1476 1479 1483 1485 1488 1491 1495 1498 1502 1505 1508 1511 1514 1517 1520 1522 1524 1526 1528 1531 1533 1535 1537 1540 1542 1543 1544 1546 1548 1550 1551 1552 1554 1556 1557 1559 1560 1562 1563 1564 1565
1405 1410 1413 1416 1421 1426 1430 1436 1441 1444 1449 1453 1458 1461 1465 1468 1470 1470 1471 1471 1472 1473 1475 1478 1480 1482 1485 1488 1491 1494 1498 1501 1504 1507 1510 1513 1516 1518 1520 1523 1525 1528 1530 1532 1534 1537 1539 1541 1542 1543 1545 1547 1549 1550 1551 1553 1555 1556 1558 1559 1560 1562 1563
1402 1407 1411 1414 1418 1423 1428 1432 1435 1440 1446 1452 1456 1459 1462 1464 1466 1467 1469 1469 1470 1472 1473 1475 1477 1480 1482 1485 1488 1491 1494 1497 1500 1504 1507 1510 1513 1515 1517 1520 1522 1525 1527 1529 1531 1533 1536 1538 1539 1541 1542 1544 1546 1547 1549 1550 1552 1553 1554 1556 1557 1559 1560
1397 1402 1407 1411 1415 1420 1424 1428 1432 1437 1443 1448 1453 1456 1457 1459 1461 1464 1465 1465 1467 1468 1469 1472 1474 1476 1479 1481 1485 1487 1490 1494 1497 1500 1503 1506 1509 1511 1514 1516 1519 1521 1524 1526 1528 1530 1532 1534 1536 1538 1540 1541 1543 1544 1546 1547 1548 1550 1551 1552 1554 1555 1557
1392 1398 1403 1407 1412 1417 1421 1424 1430 1435 1438 1442 1446 1450 1453 1455 1457 1458 1460 1462 1464 1464 1466 1469 1471 1473 1476 1479 1481 1484 1487 1490 1493 1497 1500 1502 1505 1507 1510 1513 1515 1518 1520 1522 1525 1527 1529 1531 1533 1535 1537 1538 1539 1541 1543 1544 1545 1546 1547 1548 1550 1551 1553
1387 1394 1400 1404 1408 1413 1417 1421 1425 1429 1432 1435 1440 1445 1448 1450 1452 1454 1457 1459 1460 1460 1462 1465 1468 1470 1473 1476 1479 1482 1485 1487 1490 1493 1495 1498 1501 1503 1507 1509 1512 1514 1517 1519 1522 1524 1526 1528 1530 1532 1533 1535 1536 1537 1539 1540 1541 1543 1544 1545 1546 1548 1549
1383 1391 1397 1402 1406 1410 1414 1418 1421 1424 1427 1430 1436 1441 1444 1447 1450 1452 1453 1454 1456 1458 1460 1463 1465 1467 1469 1472 1475 1478 1481 1483 1486 1488 1491 1494 1497 1500 1503 1506 1508 1511 1513 1516 1518 1520 1522 1524 1526 1528 1529 1531 1532 1533 1535 1537 1538 1539 1541 1542 1542 1544 1546
1382 1387 1393 1399 1403 1407 1412 1416 1418 1420 1423 1428 1433 1437 1441 1444 1448 1450 1451 1452 1454 1457 1459 1460 1462 1464 1466 1468 1471 1474 1476 1479 1482 1484 1487 1491 1494 1497 1500 1503 1505 1507 1509 1512 1514 1517 1519 1520 1522 1523 1525 1527 1529 1530 1531 1533 1535 1535 1537 1538 1539 1540 1542
1384 1388 1392 1397 1402 1407 1411 1413 1415 1417 1421 1425 1429 1433 1438 1441 1444 1446 1448 1450 1453 1455 1457 1458 1460 1461 1463 1464 1467 1470 1472 1475 1478 1481 1484 1487 1490 1493 1496 1499 1502 1504 1506 1508 1510 1513 1515 1516 1518 1519 1521 1523 1525 1526 1528 1529 1531 1532 1533 1534 1536 1537 1538
1388 1393 1396 1399 1403 1407 1410 1412 1414 1416 1419 1423 1427 1431 1434 1438 1441 1443 1445 1447 1450 1453 1454 1456 1457 1459 1460 1461 1463 1465 1467 1470 1474 1477 1480 1483 1486 1490 1493 1495 1498 1500 1502 1504 1506 1508 1511 1513 1514 1516 1517 1519 1520 1522 1524 1525 1526 1527 1528 1530 1532 1533 1534
1390 1395 1399 1400 1403 1406 1409 1412 1415 1417 1419 1422 1425 1429 1432 1435 1438 1440 1443 1445 1447 1449 1451 1453 1454 1456 1458 1458 1459 1461 1464 1467 1470 1473 1477 1480 1482 1486 1488 1491 1494 1497 1499 1501 1502 1504 1507 1509 1511 1512 1513 1515 1516 1518 1519 1520 1521 1522 1523 1525 1527 1529 1530
1389 1394 1400 1402 1404 1407 1410 1413 1415 1417 1420 1422 1424 1427 1430 1433 1435 1437 1440 1442 1444 1446 1448 1450 1451 1452 1454 1455 1455 1458 1462 1465 1467 1470 1473 1476 1478 1481 1484 1487 1490 1493 1496 1498 1499 1501 1503 1506 1508 1509 1510 1511 1512 1513 1514 1515 1516 1517 1518 1520 1522 1525 1526
1389 1394 1399 1403 1406 1409 1411 1414 1416 1418 1420 1421 1423 1426 1428 1430 1433 1435 1437 1439 1441 1443 1445 1447 1448 1448 1450 1452 1454 1457 1459 1461 1464 1466 1469 1472 1475 1477 1480 1484 1486 1489 1491 1494 1496 1497 1499 1502 1504 1505 1506 1507 1508 1509 1509 1510 1510 1512 1513 1515 1518 1520 1522
1394 1397 1400 1403 1406 1409 1412 1414 1416 1417 1419 1421 1423 1425 1427 1428 1430 1432 1434 1436 1438 1440 1442 1444 1444 1445 1447 1450 1452 1454 1455 1458 1460 1463 1465 1468 1471 1473 1476 1480 1482 1485 1487 1489 1491 1494 1496 1498 1499 1501 1502 1503 1503 1503 1504 1504 1506 1507 1508 1510 1513 1516 1518
1399 1400 1402 1404 1405 1408 1411 1412 1414 1417 1419 1421 1422 1424 1425 1427 1428 1430 1431 1433 1435 1437 1438 1440 1441 1442 1443 1446 1449 1449 1451 1455 1457 1459 1462 1464 1467 1470 1473 1475 1478 1480 1482 1484 1487 1491 1492 1493 1494 1496 1498 1499 1499 1499 1499 1500 1501 1502 1503 1505 1508 1510 1513
1402 1402 1402 1404 1405 1407 1409 1411 1414 1417 1418 1421 1422 1422 1423 1424 1426 1427 1429 1431 1433 1434 1435 1436 1438 1440 1440 1441 1444 1446 1448 1451 1453 1456 1459 1461 1464 1466 1468 1470 1472 1475 1478 1481 1484 1486 1487 1488 1490 1491 1493 1494 1495 1495 1495 1495 1496 1497 1498 1500 1502 1505 1508
1403 1403 1404 1405 1406 1407 1409 1410 1413 1416 1417 1419 1420 1420 1421 1422 1423 1425 1427 1428 1429 1430 1432 1433 1435 1436 1437 1438 1440 1442 1444 1447 1450 1453 1456 1458 1461 1463 1464 1466 1468 1471 1474 1477 1479 1481 1482 1484 1485 1486 1488 1489 1491 1492 1491 1491 1492 1493 1493 1494 1497 1500 1502
1404 1404 1405 1405 1406 1407 1409 1411 1413 1415 1416 1417 1418 1419 1420 1421 1422 1423 1424 1425 1427 1427 1429 1431 1432 1433 1434 1435 1436 1438 1441 1443 1446 1449 1452 1455 1457 1459 1460 1462 1464 1467 1470 1473 1475 1477 1478 1480 1481 1482 1483 1484 1486 1487 1487 1486 1488 1488 1488 1490 1492 1495 1497
1405 1406 1406 1407 1408 1408 1410 1412 1413 1414 1415 1416 1416 1417 1418 1419 1420 1421 1422 1423 1424 1425 1426 1428 1428 1430 1431 1432 1434 1436 1438 1440 1443 1445 1448 1451 1453 1454 1456 1459 1461 1464 1467 1469 1471 1473 1474 1476 1477 1478 1479 1480 1481 1481 1481 1482 1484 1485 1485 1487 1489 1491 1493
1407 1408 1409 1409 1409 1409 1411 1412 1413 1414 1414 1414 1415 1415 1415 1416 1417 1418 1419 1420 1421 1422 1424 1424 1425 1427 1429 1430 1431 1433 1435 1437 1440 1443 1445 1447 1448 1450 1453 1456 1459 1461 1463 1465 1467 1469 1470 1472 1473 1474 1475 1475 1476 1476 1477 1479 1481 1482 1483 1484 1486 1487 1488
1408 1410 1410 1410 1410 1410 1411 1412 1412 1413 1413 1413 1414 1414 1414 1414 1414 1415 1416 1417 1419 1420 1420 1421 1422 1424 1427 1428 1430 1432 1433 1435 1437 1439 1441 1443 1446 1448 1450 1453 1456 1458 1460 1462 1464 1466 1468 1469 1470 1470 1471 1471 1472 1473 1473 1475 1477 1478 1479 1480 1482 1483 1483
1409 1410 1410 1411 1411 1410 1410 1411 1411 1412 1412 1412 1411 1411 1412 1412 1412 1413 1414 1415 1417 1417 1417 1418 1420 1423 1425 1427 1428 1430 1431 1433 1435 1436 1439 1441 1444 1446 1448 1450 1453 1455 1457 1458 1460 1462 1464 1466 1466 1467 1467 1468 1469 1469 1470 1471 1473 1474 1475 1476 1478 1479 1480
1409 1409 1410 1410 1410 1409 1410 1410 1411 1411 1410 1410 1409 1410 1410 1410 1410 1411 1412 1413 1414 1415 1416 1418 1419 1421 1423 1425 1426 1427 1429 1430 1432 1434 1437 1440 1442 1445 1446 1448 1450 1452 1453 1455 1457 1458 1460 1462 1463 1464 1464 1465 1466 1466 1466 1467 1469 1470 1471 1472 1473 1475 1477
1408 1408 1409 1409 1409 1409 1409 1409 1409 1409 1409 1408 1408 1408 1409 1408 1409 1409 1410 1411 1412 1413 1416 1417 1417 1418 1420 1422 1424 1425 1426 1428 1430 1432 1435 1437 1440 1442 1444 1446 1447 1449 1451 1452 1454 1455 1456 1458 1460 1461 1462 1463 1463 1463 1464 1465 1466 1467 1467 1468 1469 1471 1473
1407 1407 1408 1408 1409 1408 1407 1408 1408 1407 1407 1407 1406 1406 1407 1407 1408 1408 1409 1410 1411 1412 1414 1415 1416 1416 1417 1420 1422 1424 1425 1427 1428 1431 1433 1435 1437 1439 1441 1443 1445 1447 1448 1450 1451 1453 1454 1455 1457 1458 1459 1460 1461 1462 1463 1464 1465 1464 1464 1465 1466 1468 1469
1408 1408 1408 1408 1408 1407 1406 1407 1407 1406 1407 1406 1405 1405 1406 1407 1407 1408 1408 1408 1409 1410 1411 1413 1414 1415 1416 1418 1420 1422 1424 1426 1427 1429 1431 1433 1435 1437 1439 1441 1442 1444 1446 1447 1449 1451 1452 1453 1454 1455 1456 1458 1459 1460 1461 1462 1462 1462 1462 1462 1463 1465 1466
1408 1408 1408 1408 1407 1406 1406 1407 1407 1407 1407 1406 1405 1405 1405 1406 1406 1406 1406 1407 1407 1408 1409 1411 1413 1414 1415 1416 1418 1420 1423 1425 1426 1428 1429 1431 1433 1435 1436 1438 1440 1441 1443 1444 1445 1447 1449 1450 1452 1453 1454 1455 1456 1457 1459 1460 1460 1460 1460 1460 1461 1462 1462
1409 1409 1408 1408 1407 1406 1406 1407 1407 1407 1407 1406 1405 1405 1405 1405 1405 1405 1405 1406 1406 1407 1409 1410 1412 1413 1414 1415 1417 1419 1421 1424 1425 1427 1428 1430 1432 1433 1434 1436 1437 1439 1440 1442 1443 1444 1446 1448 1449 1450 1451 1452 1453 1455 1456 1457 1458 1459 1459 1459 1458 1458 1458
1409 1409 1408 1408 1407 1407 1406 1407 1407 1407 1407 1406 1405 1405 1405 1405 1405 1405 1405 1406 1406 1408 1409 1410 1411 1412 1413 1415 1416 1418 1420 1422 1424 1425 1427 1428 1430 1431 1432 1434 1435 1437 1438 1439 1441 1442 1444 1445 1446 1447 1449 1450 1451 1452 1453 1454 1455 1456 1456 1455 1454 1453 1454
1409 1409 1409 1408 1407 1407 1406 1407 1407 1407 1406 1405 1405 1406 1406 1405 1405 1405 1405 1405 1406 1407 1408 1409 1410 1411 1413 1414 1416 1418 1419 1420 1422 1424 1425 1427 1428 1430 1431 1431 1433 1435 1436 1437 1439 1440 1441 1443 1444 1445 1446 1448 1449 1450 1450 1451 1453 1452 1451 1450 1449 1449 1449
1409 1409 1409 1408 1407 1407 1406 1406 1407 1406 1406 1406 1406 1406 1406 1406 1406 1406 1405 1406 1406 1407 1408 1410 1411 1412 1413 1414 1416 1417 1418 1419 1421 1422 1424 1425 1427 1428 1430 1430 1431 1433 1434 1435 1437 1438 1439 1441 1442 1443 1444 1445 1446 1447 1447 1448 1448 1446 1446 1446 1446 1446 1446
1410 1409 1409 1408 1408 1407 1407 1407 1407 1406 1406 1406 1406 1407 1407 1407 1406 1406 1406 1406 1407 1408 1409 1410 1411 1412 1413 1414 1415 1416 1417 1418 1419 1420 1422 1424 1425 1427 1428 1428 1429 1431 1432 1433 1434 1436 1437 1438 1439 1440 1441 1442 1443 1443 1443 1444 1443 1443 1443 1444 1444 1444 1444
1410 1409 1409 1409 1408 1408 1407 1407 1407 1407 1407 1407 1407 1407 1407 1407 1407 1407 1407 1407 1407 1408 1409 1410 1411 1411 1411 1412 1413 1413 1414 1416 1417 1418 1420 1422 1422 1424 1425 1426 1427 1429 1431 1431 1432 1434 1435 1436 1437 1437 1438 1439 1440 1440 1441 1441 1441 1441 1441 1441 1442 1442 1442
1410 1409 1409 1409 1408 1408 1408 1408 1408 1408 1407 1407 1408 1408 1408 1408 1408 1408 1408 1407 1407 1408 1408 1408 1409 1409 1410 1411 1412 1412 1413 1414 1414 1415 1417 1419 1420 1422 1423 1424 1426 1428 1429 1430 1431 1432 1432 1434 1434 1435 1436 1437 1437 1438 1438 1439 1439 1439 1439 1439 1439 1439 1439